Regional Weather Roundup
Issued by NWS Charleston, SC

Current Version | Previous Version | Graphics & Text | Print | Product List | Glossary On
Versions: 1 2 3 4 5 6 7 8 9 10 11 12 13 14 15 16 17 18 19 20 21 22 23 24 25 26 27 28 29 30 31 32 33 34 35 36 37 38 39 40 41 42 43 44 45 46 47 48 49 50
000
ASUS42 KCHS 301612
RWRCHS

REGIONAL WEATHER ROUNDUP
NATIONAL WEATHER SERVICE CHARLESTON SC
1200 PM EDT THU JUL 30 2015

NOTE: "FAIR" INDICATES FEW OR NO CLOUDS BELOW 12,000 FEET WITH NO
SIGNIFICANT WEATHER AND/OR OBSTRUCTIONS TO VISIBILITY.

NOT ALL STATIONS ARE QUALITY CONTROLLED BY THE NATIONAL
WEATHER SERVICE. USE DATA WITH CAUTION...ESPECIALLY
DEWPOINT OBSERVATIONS.

SCZ027-030-031-034>040-042>050-301700-
...SOUTHEAST SOUTH CAROLINA...

CITY           SKY/WX    TMP DP  RH WIND       PRES   REMARKS
N CHARLESTON   MOSUNNY   89  73  59 CALM      29.97R HX  97
WATERFRONT PRK   N/A     87  75  67 NE6       29.94S HX  96
MOUNT PLEASANT FAIR      90  73  58 CALM      29.96F HX  98
JOHNS ISLAND   FAIR      90  73  58 CALM      29.97S HX  98
PINOPOLIS      NOT AVBL
MONCKS CORNER  FAIR      90  72  55 CALM      29.97S HX  96
SUMMERVILLE    FAIR      91  73  55 CALM      29.97F HX 100
BEAUFORT MCAS  MOSUNNY   91  69  48 SE3       29.97S HX  96
BEAUFORT ARPT  FAIR      90  68  48 E5        29.97S HX  93
HILTON HEAD IS MOSUNNY   90  73  58 N6        30.00R HX  98
WALTERBORO     SUNNY     93  64  38 CALM      29.98S HX  95
ALLENDALE      FAIR      91  70  49 CALM      29.97S HX  97

...SOUTHERN MIDLANDS AND PEE DEE...

CITY           SKY/WX    TMP DP  RH WIND       PRES   REMARKS
GEORGETOWN     NOT AVBL
KINGSTREE      NOT AVBL
ORANGEBURG     SUNNY     92  70  48 N3        29.97S HX  97
BARNWELL       FAIR      93  73  52 N3        29.98S HX 102
AIKEN          FAIR      90  68  48 CALM      30.02S HX  93
MANNING        FAIR      90  64  43 CALM      29.96F HX  91
COLUMBIA       MOSUNNY   94  72  48 NE5       29.96F HX 102
SUMTER         SUNNY     93  69  45 VRB3      29.95F HX  97
FLORENCE       SUNNY     93  69  45 N6        29.96F HX  98
MYRTLE BEACH   SUNNY     90  75  62 MISG      29.98S HX 100
N MYRTLE BEACH SUNNY     89  70  53 NE6       29.96S HX  94

$$

GAZ063-065-086>088-099>101-113>116-118-119-134>141-150-301700-
...SOUTHEAST GEORGIA...

CITY           SKY/WX    TMP DP  RH WIND       PRES   REMARKS
SAVANNAH ARPT  FAIR      93  69  45 CALM      29.98R HX  98
HUNTER AAF     SUNNY     91  75  58 S7        29.96R HX 102
FORT STEWART   MOSUNNY   91  71  50 CALM      29.96S HX  97
STATESBORO     PTSUNNY   85  78  80 CALM      29.99F HX  95
SYLVANIA       PTSUNNY   91  76  60 CALM      29.99F HX 102
CLAXTON        PTSUNNY   90  75  62 CALM      29.99S HX 100

...CSRA...CENTRAL AND FAR SOUTHEAST GEORGIA...

CITY           SKY/WX    TMP DP  RH WIND       PRES   REMARKS
THOMSON        SUNNY     92  78  65 SW3       30.03S HX 107
AUGUSTA-BUSH   MOSUNNY   89  75  63 CALM      29.97S HX  99
AUGUSTA-DANIEL SUNNY     91  73  55 S5        29.99S HX  99
SWAINSBORO     FAIR      90  81  74 S5        30.00S HX 108
VIDALIA        PTSUNNY   86  77  74 SE3       30.00S HX  97
EASTMAN        FAIR      88  77  69 CALM      30.01F HX 101
HAZLEHURST     PTSUNNY   87  79  76 CALM      29.99S HX 101
ALMA           PTSUNNY   85  77  77 CALM      30.00R HX  95
WAYCROSS       MOSUNNY   88  80  76 S5        30.00S HX 104
JESUP          FAIR      90  73  58 CALM      29.99S HX  98
BAXLEY         CLOUDY    86  77  74 S3        29.99S HX  97
BRUNSWICK      MOSUNNY   88  73  62 CALM      29.99S HX  96
SAINT SIMONS   SUNNY     87  75  67 VRB7      29.99R HX  96

$$

SCZ027-028-034-036>038-045-046-048>050-GAZ119-141-301700-
...LAKE AND SUPPLEMENTAL COASTAL OBSERVATIONS...

STATION/POSITION TIME  TEMP    WIND        PRES    WAVE   SWELL
                       AIR SEA DIR/SP/G            HT/PER HT/PER/DIR
                 (UTC) (F)     (DEG/KT/KT) (MB)    (FT/S) (FT/S/D)
UPR LAKE MARION  NOT AVBL
WINYAH BAY       NOT AVBL
LAKE MURRAY      1500   85     180/  7/  7 1014.2S
ACE BASIN NERRS  NOT AVBL
FORT PULASKI     1500   84 86   80/  5/  7 1015.4
SAPELO ISLAND    1500   89      50/  3     1015.0S

$$

ANZ835-935-AMZ111-154-330-350-352-354-370-450-454-472-301700-
...C-MAN AND BUOY OBSERVATIONS...

STATION/POSITION TIME  TEMP    WIND        PRES    WAVE   SWELL
                       AIR SEA DIR/SP/G            HT/PER HT/PER/DIR
                 (UTC) (F)     (DEG/KT/KT) (MB)    (FT/S) (FT/S/D)
BUOY 41004       1550   82 85   10/ 10/ 14 1014.1R   3/ 8   3/ 8
BUOY 41008       1550   82 83   90/  4/  4 1015.7R   2/ 8   2/100/ 8
FOLLY BEACH CMAN 1500   83      90/  6/  6 1014.9R
CAPERS NEARSHORE 1508   81      70/  6/  8 1015.0R
FRIPP NEARSHORE  1500   85      90/  6/  6 1014.7R


STATION/POSITION TIME  TEMP    WIND        PRES    WAVE   SWELL
                       AIR SEA DIR/SP/G            HT/PER HT/PER/DIR
                 (UTC) (F)     (DEG/KT/KT) (MB)    (FT/S) (FT/S/D)
5E ST. MARYS GA  1521      84                N/A     2/ 5
FRYING PAN BUOY  1550   82 84   10/  8/ 10 1014.6R   5/ 8   5/170/ 8
BUOY 41025       1550   84 85  190/ 17/ 21 1015.1R   4/ 5   2/110/ 8
CAPE LOOKOUT NC  1500   80     160/ 17/ 22 1014.4R
BUOY 41002       1550   81 81  200/ 17/ 21 1015.5F   9/ 8
BUOY 41010       1520   82 84  250/ 14/ 16 1016.0R
ST AUGUSTINE FL  1600   80 82   20/  2/  2 1016.7R


$$


USA.gov is the U.S. government's official web portal to all federal, state and local government web resources and services.